Weather History for Yuma MCAS, AZ

Change the Weather History Date:

Monday, January 20, 2014

  Actual Average Record
Temperature  
Mean Temperature 64 °F 59 °F  
Max Temperature 79 °F 70 °F 85 °F (1971)
Min Temperature 48 °F 48 °F 22 °F (1883)
Degree Days  
Heating Degree Days 1 6  
Month to date heating degree days 59 140  
Since 1 July heating degree days 300 444  
Cooling Degree Days 0 0  
Month to date cooling degree days 1 0  
Year to date cooling degree days 1 0  
Growing Degree Days 14 (Base 50)    
Moisture  
Dew Point 19 °F    
Average Humidity 23    
Maximum Humidity 36    
Minimum Humidity 9    
Precipitation  
Precipitation 0.00 in 0.01 in 0.56 in (1933)
Month to date precipitation 0.00 0.26  
Year to date precipitation 0.00 0.26  
Sea Level Pressure  
Sea Level Pressure 30.12 in    
Wind  
Wind Speed 7 mph (NNE)    
Max Wind Speed 17 mph    
Max Gust Speed 20 mph    
Visibility 10 miles    
Events      
T = Trace of Precipitation, MM = Missing Value Source: NWS Daily Summary

Daily Weather History Graph

Daily Weather History Graph

Search for Another Location

Airport:

Trip Planner

Search our weather history database for the weather conditions in past years. The results will help you decide how hot, cold, wet, or windy it might be!

Date:

Astronomy

Jan. 20, 2014 Rise Set
Actual Time 7:39 AM MST 6:00 PM MST
Civil Twilight 7:12 AM MST 6:26 PM MST
Nautical Twilight 6:42 AM MST 6:56 PM MST
Astronomical Twilight 6:13 AM MST 7:25 PM MST
Moon 10:21 PM MST (1/20) 9:57 AM MST (1/20)
Length of Visible Light 11h 13m
Length of Day
10h 20m
Waning Gibbous, 82% of the Moon is Illuminated
Jan 20
Waning Gibbous
Jan 23
Last Quarter
Jan 30
New
Feb 6
First Quarter
Feb 14
Full

Hourly Weather History & Observations

Time (MST) Temp. Dew Point Humidity Pressure Visibility Wind Dir Wind Speed Gust Speed Precip Events Conditions
12:57 AM 53.1 °F 24.1 °F 32% 30.08 in 10.0 mi NE 5.8 mph - N/A   Clear
1:57 AM 52.0 °F 23.0 °F 32% 30.08 in 10.0 mi Calm Calm - N/A   Clear
2:57 AM 53.1 °F 21.0 °F 29% 30.08 in 10.0 mi ENE 4.6 mph - N/A   Clear
4:57 AM 50.0 °F 24.1 °F 36% 30.09 in 10.0 mi North 5.8 mph - N/A   Clear
5:57 AM 51.1 °F 21.9 °F 32% 30.09 in 10.0 mi NE 4.6 mph - N/A   Clear
6:57 AM 50.0 °F 23.0 °F 35% 30.11 in 10.0 mi NNE 3.5 mph - N/A   Clear
7:57 AM 50.0 °F 21.0 °F 32% 30.12 in 10.0 mi NNE 8.1 mph - N/A   Clear
8:57 AM 55.0 °F 21.0 °F 27% 30.13 in 10.0 mi NNE 10.4 mph - N/A   Clear
9:57 AM 60.1 °F 21.9 °F 23% 30.15 in 10.0 mi NE 15.0 mph - N/A   Clear
10:57 AM 66.0 °F 19.9 °F 17% 30.17 in 10.0 mi NE 11.5 mph - N/A   Clear
11:57 AM 69.1 °F 21.0 °F 16% 30.16 in 10.0 mi NE 9.2 mph - N/A   Clear
12:57 PM 73.0 °F 21.0 °F 14% 30.13 in 7.0 mi NNE 9.2 mph - N/A   Clear
1:57 PM 75.9 °F 21.0 °F 13% 30.11 in 10.0 mi North 6.9 mph - N/A   Clear
2:57 PM 78.1 °F 19.0 °F 11% 30.09 in 10.0 mi North 5.8 mph - N/A   Clear
3:57 PM 79.0 °F 16.0 °F 9% 30.09 in 10.0 mi North 8.1 mph - N/A   Clear
4:57 PM 78.1 °F 15.1 °F 9% 30.09 in 10.0 mi North 6.9 mph - N/A   Clear
5:57 PM 72.0 °F 16.0 °F 12% 30.11 in 10.0 mi North 5.8 mph - N/A   Clear
6:57 PM 70.0 °F 14.0 °F 12% 30.12 in 10.0 mi North 6.9 mph - N/A   Clear
7:57 PM 68.0 °F 15.1 °F 13% 30.14 in 10.0 mi North 9.2 mph - N/A   Clear
8:57 PM 66.0 °F 14.0 °F 13% 30.15 in 10.0 mi NNW 6.9 mph - N/A   Clear
9:57 PM 63.0 °F 16.0 °F 16% 30.16 in 10.0 mi North 4.6 mph - N/A   Clear
10:57 PM 61.0 °F 15.1 °F 17% 30.17 in 10.0 mi North 4.6 mph - N/A   Clear
11:57 PM 57.9 °F 17.1 °F 20% 30.18 in 10.0 mi Calm Calm - N/A   Clear